Location: Regona
(45.2000°N, 9.8167°E)
Time: 19:27:56
(UTC+00:00)

STARLINK-1276 - Pass Details

Date: 07 June 2020
Orbit: 549 x 551 km, 53.0° (Epoch: 12 July)

Event Time Altitude Azimuth Distance (km) Brightness Sun altitude
Exits shadow 23:23:37 - 97° (E) 2,218 6.6 -22.0°
Enters shadow 00:24:52 -62° 232° (SW) 11,909 10.4 -20.4°
Maximum altitude 01:00:01 49° 140° (SE) 714 4.0 -18.3°
